7 * 24
多渠道服务支持
STARLINK-32428是美国SpaceX公司星链(Starlink)卫星星座的成员,于2024年10月26日发射入轨。星链星座部署在近地轨道,旨在为全球尤其偏远地区提供高速宽带互联网服务,可支持流媒体、视频会议、网络游戏等日常应用。作为星座扩容的一部分,该卫星进一步完善了星链全球网络覆盖,提升星座服务稳定性与容量,助力SpaceX实现全球无处不在的互联网连接目标。
美国
(US)
| 数据来源 | 国际轨道数据 |
| 星历时间: | 2026-09-11T20:31:01+0800 14小时前 查看轨道信息 |
| 半长轴: | 6848.875km |
| 偏心率: | 0.00011 |
| 轨道倾角: | 53.161° |
| 近地点辐角 | 101.330° |
| 升交点赤经 | 306.752° |
| 平近点角 | 258.782° |
| 近地点: | 469.984km |
| 远地点: | 471.492km |
| 周期: | 94.013分钟 |
| 每日圈数: | 15.31701 |